QPF
0.00 0.00 0.00 0.00 0.00 0.00 0.00 0.00 0.00 0.00 0.00 0.00 0.00 0.00 0.00 0.00 0.00 0.00 0.00 0.00 0.00 0.00 0.00 0.00 0.00 0.00 0.00 0.00 0.00 0.00 0.00 0.00 0.00 0.00 0.00 0.00 0.00 0.00 0.00 0.00 0.00 0.00 0.00 0.00 0.00
0.00 0.00 0.00 0.00 0.00 0.00 0.00 0.00 0.00 0.00 0.00 0.00 0.00 0.00 0.00 0.00 0.00 0.00 0.00 0.00 0.00 0.00 0.00 0.00 0.00 0.00 0.00 0.00 0.00 0.00 0.00 0.00 0.00 0.00 0.00 0.00 0.00 0.00 0.00 0.00 0.00 0.00 0.00 0.00 0.00
0.00 0.00 0.00 0.00 0.00 0.00 0.00 0.00 0.00 0.00 0.00 0.00 0.00 0.00 0.00 0.00 0.00 0.00 0.00 0.00 0.00 0.00 0.00 0.00 0.00 0.00 0.00 0.00 0.00 0.00 0.00 0.00 0.00 0.00 0.00 0.00 0.00 0.00 0.00 0.00 0.00 0.00 0.00 0.00 0.00
0.00 0.00 0.00 0.00 0.00 0.00 0.00 0.00 0.00 0.00 0.00 0.00 0.00 0.00 0.00 0.00 0.00 0.00 0.00 0.00 0.00 0.00 0.00 0.00 0.00 0.00 0.00 0.00 0.00 0.00 0.00 0.00 0.00 0.00 0.00 0.00 0.00 0.00 0.00 0.00 0.00 0.00 0.00 0.00 0.00
0.00 0.00 0.00 0.00 0.00 0.00 0.00 0.00 0.00 0.00 0.00 0.00 0.00 0.00 0.00 0.00 0.00 0.00 0.00 0.00 0.00 0.00 0.00 0.00 0.00 0.00 0.00 0.00 0.00 0.00 0.00 0.00 0.00 0.00 0.00 0.00 0.00 0.00 0.00 0.00 0.00 0.00 0.00 0.00 0.00
0.00 0.00 0.00 0.00 0.00 0.00 0.00 0.00 0.00 0.00 0.00 0.00 0.00 0.00 0.00 0.00 0.00 0.00 0.00 0.00 0.00 0.00 0.00 0.00 0.00 0.00 0.00 0.00 0.00 0.00 0.00 0.00 0.00 0.00 0.00 0.00 0.00 0.00 0.00 0.00 0.00 0.00 0.00 0.00 0.00
0.00 0.00 0.00 0.00 0.00 0.00 0.00 0.00 0.00 0.00 0.00 0.00 0.00 0.00 0.00 0.00 0.00 0.00 0.00 0.00 0.00 0.00 0.00 0.00 0.00 0.00 0.00 0.00 0.00 0.00 0.00 0.00 0.00 0.00 0.00 0.00 0.00 0.00 0.00 0.00 0.00 0.00 0.00 0.00 0.00
0.00 0.00 0.00 0.00 0.00 0.00 0.00 0.00 0.00 0.00 0.00 0.00 0.00 0.00 0.00 0.00 0.00 0.00 0.00 0.00 0.00 0.00 0.00 0.00 0.00 0.00 0.00 0.00 0.00 0.00 0.00 0.00 0.00 0.00 0.00 0.00 0.00 0.00 0.00 0.00 0.00 0.00 0.00 0.00 0.00
0.00 0.00 0.00 0.00 0.00 0.00 0.00 0.00 0.00 0.00 0.00 0.00 0.00 0.00 0.00 0.00 0.00 0.00 0.00 0.00 0.00 0.00 0.00 0.00 0.00 0.00 0.00 0.00 0.00 0.00 0.00 0.00 0.00 0.00 0.00 0.00 0.00 0.00 0.00 0.00 0.00 0.00 0.00 0.00 0.00
0.00 0.00 0.00 0.00 0.00 0.00 0.00 0.00 0.00 0.00 0.00 0.00 0.00 0.00 0.00 0.00 0.00 0.00 0.00 0.00 0.00 0.00 0.00 0.00 0.00 0.00 0.00 0.00 0.00 0.00 0.00 0.00 0.00 0.00 0.00 0.00 0.00 0.00 0.00 0.00 0.00 0.00 0.00 0.00 0.00
0.00 0.00 0.00 0.00 0.00 0.00 0.00 0.00 0.00 0.00 0.00 0.00 0.00 0.00 0.00 0.00 0.00 0.00 0.00 0.00 0.00 0.00 0.00 0.00 0.00 0.00 0.00 0.00 0.00 0.00 0.00 0.00 0.00 0.00 0.00 0.00 0.00 0.00 0.00 0.00 0.00 0.00 0.00 0.00 0.00
0.00 0.00 0.00 0.00 0.00 0.00 0.00 0.00 0.00 0.00 0.00 0.00 0.00 0.00 0.00 0.00 0.00 0.00 0.00 0.00 0.00 0.00 0.00 0.00 0.00 0.00 0.00 0.00 0.00 0.00 0.00 0.00 0.00 0.00 0.00 0.00 0.00 0.00 0.00 0.00 0.00 0.00 0.00 0.00 0.00
0.00 0.00 0.00 0.00 0.00 0.00 0.00 0.00 0.00 0.00 0.00 0.00 0.00 0.00 0.00 0.00 0.00 0.00 0.00 0.00 0.00 0.00 0.00 0.00 0.00 0.00 0.00 0.00 0.00 0.00 0.00 0.00 0.00 0.00 0.00 0.00 0.00 0.00 0.00 0.00 0.00 0.00 0.00 0.00 0.00
0.00 0.00 0.00 0.00 0.00 0.00 0.00 0.00 0.00 0.00 0.00 0.00 0.00 0.00 0.00 0.00 0.00 0.00 0.00 0.00 0.00 0.00 0.00 0.00 0.00 0.00 0.00 0.00 0.00 0.00 0.00 0.00 0.00 0.00 0.00 0.00 0.00 0.00 0.00 0.00 0.00 0.00 0.00 0.00 0.00
0.00 0.00 0.00 0.00 0.00 0.00 0.00 0.00 0.00 0.00 0.00 0.00 0.00 0.00 0.00 0.00 0.00 0.00 0.00 0.00 0.00 0.00 0.00 0.00 0.00 0.00 0.00 0.00 0.00 0.00 0.00 0.00 0.00 0.00 0.00 0.00 0.00 0.00 0.00 0.00 0.00 0.00 0.00 0.00 0.00
0.00 0.00 0.00 0.00 0.00 0.00 0.00 0.00 0.00 0.00 0.00 0.00 0.00 0.00 0.00 0.00 0.00 0.00 0.00 0.00 0.00 0.00 0.00 0.00 0.00 0.00 0.00 0.00 0.00 0.00 0.00 0.00 0.00 0.00 0.00 0.00 0.00 0.00 0.00 0.00 0.00 0.00 0.00 0.00 0.00
0.00 0.00 0.00 0.00 0.00 0.00 0.00 0.00 0.00 0.00 0.00 0.00 0.00 0.00 0.00 0.00 0.00 0.00 0.00 0.00 0.00 0.00 0.00 0.00 0.00 0.00 0.00 0.00 0.00 0.00 0.00 0.00 0.00 0.00 0.00 0.00 0.00 0.00 0.00 0.00 0.00 0.00 0.00 0.00 0.00
0.00 0.00 0.00 0.00 0.00 0.00 0.00 0.00 0.00 0.00 0.00 0.00 0.00 0.00 0.00 0.00 0.00 0.00 0.00 0.00 0.00 0.00 0.00 0.00 0.00 0.00 0.00 0.00 0.00 0.00 0.00 0.00 0.00 0.00 0.00 0.00 0.00 0.00 0.00 0.00 0.00 0.00 0.00 0.00 0.00
0.00 0.00 0.00 0.00 0.00 0.00 0.00 0.00 0.00 0.00 0.00 0.00 0.00 0.00 0.00 0.00 0.00 0.00 0.00 0.00 0.00 0.00 0.00 0.00 0.00 0.00 0.00 0.00 0.00 0.00 0.00 0.00 0.00 0.00 0.00 0.00 0.00 0.00 0.00 0.00 0.00 0.00 0.00 0.00 0.00
0.00 0.00 0.00 0.00 0.00 0.00 0.00 0.00 0.00 0.00 0.00 0.00 0.00 0.00 0.00 0.00 0.00 0.00 0.00 0.00 0.00 0.00 0.00 0.00 0.00 0.00 0.00 0.00 0.00 0.00 0.00 0.00 0.00 0.00 0.00 0.00 0.00 0.00 0.00 0.00 0.00 0.00 0.00 0.00 0.00
0.00 0.00 0.00 0.00 0.00 0.00 0.00 0.00 0.00 0.00 0.00 0.00 0.00 0.00 0.00 0.00 0.00 0.00 0.00 0.00 0.00 0.00 0.00 0.00 0.00 0.00 0.00 0.00 0.00 0.00 0.00 0.00 0.00 0.00 0.00 0.00 0.00 0.00 0.00 0.00 0.00 0.00 0.00 0.00 0.00
0.00 0.00 0.00 0.00 0.00 0.00 0.00 0.00 0.00 0.00 0.00 0.00 0.00 0.00 0.00 0.00 0.00 0.00 0.00 0.00 0.00 0.00 0.00 0.00 0.00 0.00 0.00 0.00 0.00 0.00 0.00 0.00 0.00 0.00 0.00 0.00 0.00 0.00 0.00 0.00 0.00 0.00 0.00 0.00 0.00
0.00 0.00 0.00 0.00 0.00 0.00 0.00 0.00 0.00 0.00 0.00 0.00 0.00 0.00 0.00 0.00 0.00 0.00 0.00 0.00 0.00 0.00 0.00 0.00 0.00 0.00 0.00 0.00 0.00 0.00 0.00 0.00 0.00 0.00 0.00 0.00 0.00 0.00 0.00 0.00 0.00 0.00 0.00 0.00 0.00
0.00 0.00 0.00 0.00 0.00 0.00 0.00 0.00 0.00 0.00 0.00 0.00 0.00 0.00 0.00 0.00 0.00 0.00 0.00 0.00 0.00 0.00 0.00 0.00 0.00 0.00 0.00 0.00 0.00 0.00 0.00 0.00 0.00 0.00 0.00 0.00 0.00 0.00 0.00 0.00 0.00 0.00 0.00 0.00 0.00
0.00 0.00 0.00 0.00 0.00 0.00 0.00 0.00 0.00 0.00 0.00 0.00 0.00 0.00 0.00 0.00 0.00 0.00 0.00 0.00 0.00 0.00 0.00 0.00 0.00 0.00 0.00 0.00 0.00 0.00 0.00 0.00 0.00 0.00 0.00 0.00 0.00 0.00 0.00 0.00 0.00 0.00 0.00 0.00 0.00
0.00 0.00 0.00 0.00 0.00 0.00 0.00 0.00 0.00 0.00 0.00 0.00 0.00 0.00 0.00 0.00 0.00 0.00 0.00 0.00 0.00 0.00 0.00 0.00 0.00 0.00 0.00 0.00 0.00 0.00 0.00 0.00 0.00 0.00 0.00 0.00 0.00 0.00 0.00 0.00 0.00 0.00 0.00 0.00 0.00
0.00 0.00 0.00 0.00 0.00 0.00 0.00 0.00 0.00 0.00 0.00 0.00 0.00 0.00 0.00 0.00 0.00 0.00 0.00 0.00 0.00 0.00 0.00 0.00 0.00 0.00 0.00 0.00 0.00 0.00 0.00 0.00 0.00 0.00 0.00 0.00 0.00 0.00 0.00 0.00 0.00 0.00 0.00 0.00 0.00
MSLP
1020.31 1020.51 1020.64 1020.30 1020.88 1020.48 1020.64 1020.68 1020.79 1020.41 1020.14 1019.70 1019.73 1019.30 1018.91 1018.14 1017.46 1016.46 1016.68 1018.17 1017.50 1016.89 1016.67 1016.07 1015.63 1015.93 1016.06 1017.21 1018.02 1018.22 1018.17 1019.87 1021.43 1022.38 1023.49 1025.31 1025.94 1027.24 1028.00 1028.07 1028.83 1029.35 1029.46 1029.94 1031.26
1020.57 1020.85 1020.68 1020.60 1020.62 1020.47 1020.83 1020.70 1020.71 1020.36 1019.66 1019.64 1019.76 1019.32 1018.76 1018.42 1017.44 1016.61 1018.11 1017.69 1017.22 1016.75 1016.27 1015.89 1015.78 1016.04 1016.85 1018.09 1018.73 1018.48 1019.16 1021.27 1022.62 1023.06 1023.91 1025.29 1025.95 1027.05 1027.62 1028.13 1028.64 1029.37 1030.20 1030.59 1031.55
1020.78 1020.85 1020.47 1020.91 1020.23 1020.39 1020.87 1020.90 1020.55 1020.06 1019.91 1019.78 1019.85 1019.43 1018.48 1018.16 1017.09 1017.49 1017.72 1017.63 1017.30 1016.87 1016.54 1016.57 1016.54 1016.68 1017.87 1019.05 1020.18 1020.49 1021.25 1022.85 1023.77 1024.22 1024.49 1025.48 1026.30 1026.94 1026.95 1027.39 1027.43 1028.15 1029.53 1030.54 1031.22
1020.86 1020.61 1020.91 1020.48 1020.16 1020.51 1020.78 1020.57 1020.55 1019.81 1019.80 1019.65 1019.83 1019.19 1018.30 1017.44 1017.89 1018.05 1018.18 1017.80 1017.42 1016.93 1016.61 1016.66 1016.65 1017.39 1018.83 1019.95 1021.24 1021.78 1023.34 1023.69 1024.56 1025.14 1025.38 1025.77 1026.35 1026.71 1026.81 1026.70 1027.20 1027.83 1029.27 1030.21 1030.89
1020.79 1020.98 1020.71 1020.27 1020.57 1020.48 1020.77 1020.38 1020.19 1019.86 1019.78 1019.78 1019.61 1018.82 1018.11 1017.59 1018.83 1018.75 1018.42 1017.60 1017.26 1016.95 1016.98 1016.84 1017.14 1018.23 1019.43 1020.86 1021.60 1022.35 1023.92 1024.67 1025.21 1025.65 1025.79 1026.23 1026.31 1026.29 1026.60 1027.26 1027.64 1028.38 1029.43 1030.13 1030.72
1020.70 1021.07 1020.70 1020.52 1020.42 1020.73 1020.74 1020.29 1020.16 1019.90 1019.95 1019.84 1019.26 1018.69 1017.77 1018.28 1019.37 1019.11 1018.44 1017.87 1017.68 1017.22 1017.61 1017.39 1018.02 1018.88 1020.30 1021.69 1022.15 1023.52 1023.99 1024.73 1025.30 1025.70 1026.01 1026.05 1026.34 1026.67 1026.13 1027.29 1027.74 1028.60 1029.32 1029.97 1030.48
1020.78 1021.01 1020.87 1020.31 1020.72 1020.65 1020.67 1020.20 1019.96 1019.96 1020.19 1019.62 1019.11 1018.36 1018.02 1019.40 1019.50 1019.33 1018.96 1018.83 1018.45 1018.07 1018.28 1019.03 1019.13 1019.11 1020.61 1022.22 1023.39 1023.39 1023.51 1024.21 1024.84 1025.31 1025.65 1026.00 1025.88 1025.22 1025.74 1027.02 1027.66 1028.48 1029.07 1029.71 1030.36
1020.94 1021.17 1020.88 1020.35 1020.94 1020.74 1020.41 1019.94 1019.86 1019.90 1020.27 1019.62 1019.14 1018.16 1018.77 1019.57 1019.53 1019.41 1019.19 1019.16 1019.10 1019.08 1019.05 1019.63 1019.62 1020.09 1021.19 1022.55 1022.83 1022.55 1022.77 1022.68 1023.79 1024.73 1025.54 1025.75 1023.49 1024.13 1025.76 1026.70 1027.31 1027.94 1028.55 1029.35 1030.11
1021.08 1021.13 1020.73 1020.85 1021.02 1020.50 1020.11 1019.78 1019.59 1020.01 1020.03 1019.44 1018.87 1018.15 1019.11 1019.58 1019.61 1019.71 1019.58 1019.15 1019.22 1019.29 1019.50 1019.73 1019.71 1020.79 1022.08 1021.44 1021.58 1021.79 1021.05 1021.89 1022.92 1024.01 1024.70 1025.09 1023.15 1024.16 1025.53 1026.26 1026.66 1027.20 1027.84 1028.68 1029.47
1021.22 1020.96 1021.09 1021.14 1020.75 1020.36 1019.83 1019.68 1019.57 1019.87 1019.63 1019.23 1019.10 1018.87 1019.51 1019.77 1020.03 1019.95 1019.74 1019.44 1019.07 1019.16 1019.18 1019.26 1019.66 1020.25 1020.88 1020.76 1020.43 1020.69 1020.84 1021.50 1022.03 1023.41 1024.23 1023.87 1022.92 1023.49 1025.03 1025.61 1025.77 1026.32 1027.04 1027.78 1028.67
1021.25 1021.34 1021.30 1021.07 1020.66 1020.18 1019.16 1019.22 1019.88 1020.06 1019.90 1020.41 1020.25 1019.94 1019.99 1020.18 1020.25 1019.93 1019.95 1019.37 1019.02 1018.87 1018.94 1019.61 1019.41 1020.22 1021.17 1021.60 1021.50 1021.32 1021.14 1021.33 1022.01 1023.38 1023.59 1022.72 1021.96 1022.36 1023.47 1024.71 1024.98 1025.31 1025.87 1026.67 1027.71
1021.53 1021.46 1021.25 1020.92 1020.50 1020.19 1019.65 1020.11 1021.10 1021.34 1020.77 1020.82 1020.62 1020.49 1020.57 1020.61 1020.12 1019.82 1019.63 1019.49 1019.05 1019.00 1019.55 1019.83 1020.31 1021.62 1022.07 1022.13 1021.96 1021.72 1021.48 1021.36 1022.10 1023.22 1023.43 1022.10 1020.87 1021.06 1021.76 1023.13 1023.86 1024.26 1024.84 1025.67 1026.95
1021.59 1021.47 1021.15 1020.81 1020.39 1020.06 1020.63 1021.65 1021.87 1021.38 1020.61 1020.91 1020.82 1020.57 1020.74 1020.74 1020.64 1020.37 1020.19 1020.09 1019.72 1019.69 1019.94 1020.09 1021.63 1022.24 1022.39 1022.38 1022.29 1021.88 1021.90 1022.05 1022.47 1022.75 1022.96 1022.30 1020.00 1020.61 1021.87 1022.67 1023.44 1023.76 1024.23 1025.11 1026.25
1021.60 1021.39 1021.13 1020.62 1020.43 1020.96 1021.31 1021.99 1021.79 1021.54 1020.57 1020.88 1020.71 1020.72 1020.85 1020.73 1021.00 1021.28 1021.07 1020.81 1020.41 1020.39 1020.74 1021.18 1022.16 1022.36 1022.50 1022.63 1022.84 1022.28 1022.71 1022.79 1022.70 1022.45 1021.76 1022.13 1019.77 1019.49 1020.73 1021.54 1022.47 1023.02 1023.89 1024.82 1025.83
1021.63 1021.39 1021.21 1020.69 1020.78 1021.18 1022.01 1021.96 1021.71 1021.19 1020.41 1021.04 1020.67 1020.83 1020.96 1021.01 1021.50 1021.34 1021.67 1020.75 1020.77 1020.99 1021.32 1022.01 1022.29 1022.50 1022.61 1023.05 1023.32 1023.22 1023.19 1022.97 1022.66 1022.03 1021.80 1021.32 1020.64 1018.69 1020.10 1020.32 1021.19 1022.12 1023.14 1024.21 1025.20
1021.71 1021.43 1021.16 1021.01 1021.03 1022.01 1022.07 1021.81 1021.45 1021.06 1020.53 1020.79 1020.80 1020.78 1020.80 1021.16 1021.56 1021.54 1021.32 1021.30 1021.71 1021.42 1021.55 1022.20 1022.97 1023.04 1023.13 1023.43 1023.49 1023.49 1022.95 1022.65 1022.33 1021.57 1020.65 1020.97 1020.77 1018.17 1018.93 1020.02 1021.06 1022.29 1023.17 1024.04 1025.42
1021.88 1021.62 1021.27 1021.58 1021.88 1022.12 1022.04 1021.49 1020.92 1020.44 1021.19 1020.93 1020.95 1021.03 1021.09 1021.29 1021.53 1021.69 1021.67 1021.63 1021.76 1021.62 1021.48 1022.23 1022.73 1023.37 1023.69 1023.31 1023.45 1023.17 1022.25 1021.18 1020.63 1020.13 1020.08 1021.04 1020.54 1018.20 1019.03 1020.24 1021.43 1022.27 1023.11 1024.27 1025.76
1021.99 1021.73 1022.17 1022.25 1022.25 1022.13 1021.73 1021.08 1020.76 1020.79 1020.89 1021.20 1021.23 1021.31 1021.20 1021.56 1021.77 1022.00 1022.02 1022.08 1022.70 1022.35 1022.04 1022.06 1022.78 1023.31 1023.76 1023.66 1023.43 1023.09 1022.77 1022.01 1021.29 1020.45 1020.15 1020.80 1019.20 1017.82 1019.24 1020.54 1021.78 1022.70 1023.49 1024.52 1025.91
1022.05 1021.97 1021.95 1022.17 1022.30 1022.02 1021.48 1021.04 1020.78 1021.08 1021.31 1021.37 1021.46 1021.22 1021.20 1021.57 1021.88 1021.95 1022.16 1022.39 1022.86 1022.98 1022.64 1022.45 1023.02 1023.79 1024.08 1024.19 1024.24 1023.36 1023.14 1023.45 1022.45 1022.08 1021.08 1018.95 1018.09 1017.50 1018.91 1019.83 1021.05 1022.03 1023.35 1024.35 1025.68
1021.88 1022.03 1022.24 1022.43 1022.31 1021.77 1021.43 1021.40 1021.48 1021.77 1021.86 1021.83 1021.37 1021.31 1021.03 1021.28 1021.61 1021.78 1022.11 1022.85 1023.28 1023.73 1023.65 1023.01 1023.17 1023.82 1024.39 1024.56 1024.50 1023.92 1023.98 1023.50 1022.84 1021.64 1020.09 1018.12 1017.76 1017.00 1017.48 1018.26 1019.72 1021.09 1022.34 1023.74 1025.31
1022.09 1021.99 1022.47 1022.45 1022.26 1021.64 1021.52 1021.76 1021.96 1022.15 1022.21 1022.15 1021.70 1021.49 1021.40 1021.40 1021.54 1021.75 1022.20 1023.36 1023.81 1024.19 1024.28 1023.74 1023.55 1024.04 1024.31 1023.96 1023.61 1024.28 1023.81 1023.82 1023.56 1022.72 1021.16 1019.04 1016.22 1015.95 1016.54 1017.53 1018.63 1019.81 1021.16 1022.77 1024.50
1022.35 1022.44 1022.57 1022.39 1022.31 1022.34 1021.89 1022.24 1022.49 1022.43 1022.58 1022.42 1022.14 1021.78 1021.65 1021.70 1021.77 1022.16 1022.50 1023.32 1024.20 1024.52 1024.48 1024.27 1023.60 1022.88 1022.95 1023.81 1024.05 1023.82 1023.38 1023.06 1022.75 1022.40 1021.80 1020.71 1016.88 1015.88 1016.62 1017.69 1018.78 1019.56 1020.81 1022.24 1023.91
1022.41 1022.53 1022.58 1022.58 1022.16 1022.14 1022.37 1022.45 1022.57 1022.65 1022.61 1022.52 1022.24 1022.07 1022.14 1022.09 1022.45 1022.59 1023.20 1024.45 1024.90 1025.03 1024.92 1024.61 1023.82 1022.79 1023.06 1023.99 1024.15 1023.73 1023.49 1023.37 1023.26 1022.65 1020.93 1019.80 1015.80 1015.94 1016.96 1017.66 1018.45 1019.39 1020.47 1022.03 1023.66
1022.77 1022.76 1022.69 1022.59 1022.63 1022.02 1022.19 1022.24 1022.47 1022.64 1022.63 1022.52 1022.34 1022.36 1022.34 1022.36 1022.79 1023.05 1023.77 1024.88 1025.37 1025.57 1025.78 1025.25 1023.99 1022.61 1021.78 1021.73 1021.96 1022.85 1023.03 1023.22 1022.75 1022.04 1019.94 1018.25 1015.70 1014.89 1015.62 1016.57 1017.53 1018.75 1020.18 1021.57 1023.23
1022.87 1022.46 1022.71 1022.35 1022.40 1022.14 1022.19 1022.07 1022.21 1022.46 1022.73 1022.73 1022.53 1022.07 1021.93 1022.24 1022.67 1022.97 1023.87 1025.03 1025.72 1025.87 1026.01 1025.53 1024.13 1023.11 1021.92 1021.87 1022.22 1022.05 1022.20 1022.57 1022.15 1020.91 1020.07 1016.50 1016.63 1015.11 1015.34 1015.84 1016.89 1018.44 1019.81 1021.33 1022.68
1023.17 1022.85 1023.12 1022.41 1022.44 1022.26 1022.24 1021.63 1021.65 1021.84 1022.26 1022.44 1022.42 1021.81 1022.11 1021.95 1021.74 1022.22 1023.16 1024.19 1024.51 1025.94 1025.88 1025.79 1024.55 1023.76 1022.15 1021.79 1021.91 1021.57 1021.24 1021.43 1021.49 1020.94 1019.76 1018.24 1016.87 1015.47 1015.38 1016.45 1017.29 1018.18 1019.61 1020.90 1021.99
1023.67 1023.22 1022.62 1022.42 1022.23 1022.08 1021.38 1021.12 1021.21 1021.59 1021.62 1021.93 1022.11 1022.40 1022.64 1022.27 1022.34 1022.77 1023.03 1023.42 1023.73 1024.53 1025.26 1025.35 1024.65 1023.93 1022.11 1021.79 1021.53 1020.52 1018.49 1019.60 1019.72 1019.45 1018.68 1017.51 1015.35 1015.47 1015.63 1016.22 1016.75 1017.53 1018.94 1019.98 1021.08
Thickness
5716 5715 5715 5722 5715 5722 5720 5718 5716 5722 5726 5730 5728 5733 5738 5748 5753 5759 5748 5743 5752 5757 5758 5760 5761 5756 5755 5736 5731 5728 5715 5694 5682 5679 5675 5662 5656 5646 5640 5638 5632 5628 5628 5623 5610
5713 5710 5714 5718 5719 5723 5718 5718 5718 5724 5733 5733 5729 5735 5742 5747 5754 5753 5747 5751 5756 5760 5761 5757 5752 5753 5739 5728 5723 5724 5713 5690 5683 5683 5673 5661 5659 5647 5642 5635 5631 5625 5617 5615 5604
5710 5711 5718 5714 5725 5724 5717 5716 5721 5728 5731 5732 5729 5734 5747 5750 5751 5742 5752 5753 5756 5760 5760 5756 5752 5747 5726 5720 5706 5699 5694 5679 5671 5671 5673 5660 5652 5648 5647 5638 5642 5634 5620 5611 5604
5710 5715 5712 5721 5727 5723 5719 5721 5720 5731 5733 5735 5730 5738 5750 5756 5723 5746 5749 5753 5756 5759 5759 5752 5748 5733 5716 5707 5698 5688 5674 5675 5666 5661 5660 5654 5651 5645 5645 5648 5642 5635 5620 5610 5602
5712 5711 5718 5725 5722 5724 5719 5723 5726 5732 5734 5733 5733 5743 5752 5742 5730 5745 5748 5754 5756 5758 5750 5746 5738 5726 5712 5700 5697 5687 5670 5665 5661 5655 5656 5650 5647 5648 5642 5636 5633 5626 5614 5606 5599
5714 5713 5719 5723 5725 5720 5720 5726 5728 5732 5731 5733 5738 5745 5749 5727 5740 5742 5748 5751 5752 5752 5743 5744 5733 5725 5704 5689 5690 5675 5670 5662 5658 5654 5650 5649 5643 5636 5647 5632 5628 5618 5610 5603 5596
5715 5715 5718 5725 5721 5722 5722 5729 5733 5732 5728 5736 5740 5747 5742 5727 5739 5740 5743 5743 5745 5744 5733 5729 5727 5723 5706 5683 5676 5675 5669 5663 5657 5654 5650 5645 5643 5646 5645 5630 5623 5615 5608 5600 5591
5714 5714 5719 5725 5719 5721 5725 5732 5734 5733 5726 5736 5740 5747 5727 5738 5737 5739 5739 5737 5738 5736 5732 5726 5724 5710 5698 5684 5677 5677 5673 5674 5663 5654 5645 5644 5675 5660 5640 5629 5622 5615 5608 5597 5586
5713 5716 5722 5720 5716 5723 5729 5732 5734 5729 5728 5736 5740 5742 5723 5738 5734 5735 5735 5733 5733 5731 5728 5725 5720 5700 5685 5690 5683 5677 5685 5674 5668 5657 5649 5644 5668 5652 5636 5627 5623 5617 5608 5597 5586
5714 5719 5717 5715 5720 5724 5730 5731 5730 5727 5729 5734 5737 5731 5729 5722 5728 5730 5733 5732 5729 5726 5724 5720 5713 5702 5694 5692 5684 5680 5678 5673 5672 5660 5646 5651 5654 5655 5633 5627 5626 5620 5609 5599 5587
5714 5713 5714 5717 5720 5725 5731 5731 5723 5718 5722 5710 5713 5716 5720 5726 5728 5726 5727 5729 5729 5725 5711 5708 5707 5692 5683 5677 5675 5674 5673 5671 5672 5652 5648 5658 5661 5660 5650 5629 5626 5623 5614 5603 5591
5710 5712 5715 5718 5721 5724 5726 5716 5709 5712 5706 5712 5713 5716 5719 5720 5717 5723 5730 5722 5720 5708 5706 5706 5692 5682 5677 5672 5670 5670 5670 5674 5667 5648 5645 5661 5663 5667 5660 5640 5632 5628 5619 5607 5592
5708 5711 5715 5719 5722 5722 5715 5706 5707 5713 5709 5706 5710 5713 5713 5717 5708 5712 5719 5713 5709 5703 5700 5700 5682 5677 5673 5671 5669 5672 5668 5665 5656 5654 5645 5645 5672 5661 5643 5636 5628 5625 5620 5608 5593
5707 5710 5714 5720 5720 5713 5708 5706 5709 5711 5702 5698 5705 5710 5712 5712 5704 5709 5711 5709 5704 5698 5693 5690 5680 5677 5674 5670 5665 5668 5660 5654 5650 5650 5660 5644 5666 5673 5652 5643 5630 5625 5614 5602 5590
5705 5708 5711 5717 5714 5709 5706 5707 5710 5713 5682 5696 5703 5714 5708 5705 5701 5704 5705 5709 5698 5693 5692 5682 5678 5676 5675 5667 5662 5664 5654 5651 5647 5650 5646 5648 5648 5685 5647 5654 5645 5632 5619 5602 5589
5703 5706 5709 5711 5710 5704 5705 5708 5711 5694 5680 5691 5699 5697 5701 5699 5696 5699 5703 5704 5696 5692 5690 5680 5675 5674 5672 5665 5661 5657 5657 5652 5647 5651 5660 5641 5641 5676 5668 5657 5643 5625 5612 5601 5582
5700 5703 5705 5703 5703 5701 5703 5707 5693 5683 5689 5689 5690 5693 5692 5691 5691 5690 5688 5689 5691 5689 5689 5680 5676 5670 5666 5669 5663 5663 5670 5675 5672 5669 5663 5633 5635 5670 5663 5649 5635 5623 5612 5595 5575
5697 5699 5696 5696 5698 5700 5702 5697 5674 5682 5686 5688 5687 5686 5688 5686 5684 5683 5683 5686 5675 5681 5683 5684 5680 5671 5665 5665 5664 5660 5660 5662 5644 5657 5660 5628 5646 5679 5654 5635 5623 5611 5602 5589 5568
5692 5693 5695 5694 5695 5698 5697 5679 5686 5683 5686 5683 5683 5683 5684 5682 5682 5682 5680 5682 5675 5674 5683 5681 5676 5663 5660 5659 5656 5659 5660 5643 5643 5630 5633 5662 5667 5677 5650 5639 5625 5614 5596 5584 5565
5688 5688 5688 5690 5692 5696 5687 5674 5680 5679 5680 5680 5681 5682 5682 5682 5680 5680 5679 5674 5670 5665 5666 5674 5676 5661 5655 5654 5650 5655 5647 5650 5645 5639 5643 5667 5649 5662 5666 5660 5638 5621 5604 5587 5563
5681 5680 5683 5685 5688 5687 5676 5677 5675 5676 5677 5677 5679 5676 5678 5678 5680 5680 5681 5667 5666 5661 5660 5665 5667 5658 5652 5656 5663 5646 5647 5634 5632 5631 5634 5637 5668 5684 5671 5660 5647 5634 5615 5593 5566
5671 5668 5677 5679 5674 5663 5673 5672 5667 5671 5671 5673 5674 5676 5676 5674 5674 5673 5677 5672 5663 5661 5661 5659 5665 5673 5671 5650 5647 5648 5652 5651 5643 5635 5623 5614 5648 5670 5662 5648 5636 5628 5613 5593 5568
5666 5666 5670 5672 5665 5666 5662 5663 5664 5664 5666 5667 5669 5670 5668 5668 5665 5667 5665 5653 5653 5655 5656 5655 5662 5673 5663 5647 5641 5644 5643 5640 5630 5628 5637 5629 5671 5666 5650 5639 5634 5622 5612 5589 5564
5657 5655 5659 5660 5656 5665 5659 5663 5661 5660 5662 5664 5665 5664 5662 5660 5657 5661 5656 5646 5646 5647 5641 5645 5655 5668 5683 5680 5671 5649 5640 5635 5641 5633 5648 5645 5674 5685 5675 5657 5646 5628 5609 5589 5563
5650 5655 5649 5653 5654 5655 5654 5659 5656 5657 5655 5656 5657 5663 5666 5660 5654 5656 5649 5640 5638 5639 5637 5640 5652 5651 5661 5658 5650 5656 5651 5635 5634 5648 5640 5681 5655 5674 5671 5664 5651 5626 5608 5583 5563
5642 5644 5637 5646 5641 5644 5642 5657 5657 5656 5655 5653 5653 5663 5659 5663 5670 5664 5654 5646 5654 5631 5635 5629 5650 5636 5654 5646 5642 5644 5648 5645 5638 5638 5639 5641 5648 5670 5670 5645 5632 5624 5602 5580 5563
5624 5630 5639 5634 5637 5641 5651 5656 5656 5655 5656 5656 5656 5655 5650 5657 5657 5650 5650 5648 5651 5644 5635 5632 5637 5638 5660 5642 5642 5658 5676 5655 5651 5645 5648 5644 5674 5663 5659 5648 5641 5629 5604 5586 5569